[[{"header":{"parameterUnit":"m.s-1","parameterCategory":1,"la1":30.2991,"la2":30.254,"lo1":-89.0895,"lo2":-89.0444,"dy":0.0017,"dx":0.0017,"nx":28,"ny":28,"refTime":"2024-05-12T03:00:00:Z","depth":0,"parameterNumber":2,"parameterNumberName":"U-component_of_WINDS"},"data":[0,0,0,0,0,0,0,0,0,0,0,0,0,0,0,0,0,0,0,0,0,0,0,0,0,0,0,0,0,0,0,0,0,0,0,0,0,0,0,0,0,0,0,0,0,0,0,0,0,0,0,0,0,0,0,0,0,0,-0.2462,-0.2461,0,-0.2351,-0.235,-0.2349,-0.229,-0.229,-0.229,-0.229,-0.2173,-0.217,-0.2167,0,0,0,0,0,0,0,0,0,0,0,0,0,-0.262,-0.2617,-0.2462,-0.2461,-0.2459,-0.2351,-0.235,-0.2348,-0.229,-0.229,-0.229,-0.229,-0.2174,-0.2171,-0.2167,0,0,0,0,0,0,0,0,0,0,0,0,0,-0.2534,-0.2616,-0.2462,-0.2417,-0.2412,-0.2352,-0.235,-0.2348,-0.229,-0.229,-0.229,-0.2289,-0.2175,-0.2171,-0.2167,-0.2142,0,0,-0.2153,-0.2151,0,0,0,0,0,0,0,0,-0.2539,-0.2529,-0.2425,-0.242,-0.2414,-0.2334,-0.2363,-0.2279,-0.229,-0.2336,-0.229,-0.2289,-0.2227,-0.2218,-0.2198,-0.2137,-0.2132,-0.2152,-0.215,-0.2148,-0.2147,0,0,0,0,0,0,0,-0.2545,-0.2533,-0.2418,-0.2424,-0.2417,-0.2401,-0.2389,-0.2347,-0.2284,-0.2332,-0.2328,-0.2315,-0.2224,-0.2202,-0.2194,-0.213,-0.2153,-0.2149,-0.2146,-0.2144,-0.2043,-0.2043,0,0,0,0,0,0,-0.2559,-0.2538,-0.2422,-0.2415,-0.2478,-0.2399,-0.2385,-0.236,-0.2284,-0.2272,-0.2316,-0.2313,-0.221,-0.22,-0.219,-0.2156,-0.2148,-0.2144,-0.2141,-0.2043,-0.2043,-0.2043,0,0,0,0,0,0,-0.2562,-0.2549,-0.2426,-0.2475,-0.2458,-0.2396,-0.2369,-0.2358,-0.2336,-0.2272,-0.226,-0.2305,-0.2209,-0.2196,-0.2155,-0.2151,-0.2142,-0.2138,-0.2043,-0.2043,-0.2043,-0.2089,0,0,0,0,0,0,-0.2567,-0.2551,-0.2541,-0.2476,-0.2456,-0.2393,-0.2368,-0.2356,-0.2329,-0.2325,-0.2259,-0.2248,-0.2208,-0.2162,-0.215,-0.2145,-0.2134,-0.2043,-0.2043,-0.2043,-0.2087,-0.209,-0.2093,0,0,0,0,0,-0.2573,-0.2558,-0.2541,-0.2527,-0.2443,-0.2393,-0.2382,-0.2338,-0.2329,-0.2319,-0.2277,-0.225,-0.2154,-0.2158,-0.2144,-0.2138,-0.2043,-0.2043,-0.2043,-0.2086,-0.209,-0.2093,0,0,0,0,0,0,-0.2624,-0.2548,-0.2529,-0.2492,-0.245,-0.2384,-0.2369,-0.2343,-0.2302,-0.2299,-0.2245,-0.2231,-0.2194,-0.2161,-0.2168,-0.211,-0.2095,-0.2093,-0.2133,-0.2136,-0.2139,-0.2147,-0.213,0,0,0,0,0,-0.2631,-0.2598,-0.2533,-0.2507,-0.2487,-0.2432,-0.2408,-0.2378,-0.2332,-0.2313,-0.2268,-0.2223,-0.2183,-0.2157,-0.2117,-0.2082,-0.2067,-0.2071,-0.2074,-0.2077,-0.2075,-0.2054,-0.2055,-0.2043,-0.2043,-0.2043,0,0,-0.2645,-0.26,-0.2582,-0.2516,-0.248,-0.2446,-0.2417,-0.2382,-0.2356,-0.2307,-0.2266,-0.2231,-0.2177,-0.2139,-0.212,-0.2111,-0.2075,-0.2077,-0.2079,-0.2076,-0.2054,-0.2056,-0.2057,-0.2043,-0.2043,-0.2043,0,0,-0.2653,-0.2616,-0.259,-0.2554,-0.25,-0.2463,-0.2457,-0.2395,-0.2371,-0.2328,-0.2291,-0.2258,-0.219,-0.2153,-0.2126,-0.212,-0.2094,-0.2109,-0.2124,-0.2104,-0.2105,-0.2106,-0.2104,-0.2104,-0.2107,-0.2107,-0.2107,0,-0.2677,-0.2626,-0.258,-0.2547,-0.2519,-0.2475,-0.2448,-0.2415,-0.235,-0.2331,-0.2322,-0.2235,-0.2196,-0.2149,-0.2148,-0.2127,-0.2117,-0.2116,-0.2109,-0.2109,-0.2109,-0.2107,-0.2106,-0.2109,-0.2109,-0.2109,-0.2109,0,-0.2658,-0.2623,-0.2608,-0.2548,-0.2518,-0.2488,-0.2437,-0.2413,-0.2385,-0.2349,-0.2306,-0.2257,-0.2206,-0.2193,-0.2165,-0.2141,-0.2137,-0.2119,-0.2104,-0.2113,-0.211,-0.2109,-0.2113,-0.2112,-0.2111,-0.2111,0,0,-0.2695,-0.261,-0.2605,-0.2578,-0.2514,-0.2485,-0.2454,-0.2405,-0.2385,-0.2341,-0.2312,-0.2256,-0.2239,-0.2208,-0.2175,-0.2158,-0.2157,-0.2142,-0.214,-0.2147,-0.2128,-0.2143,-0.2143,-0.2139,-0.2139,-0.2138,-0.2133,0,-0.2695,-0.2637,-0.2595,-0.2553,-0.2519,-0.2476,-0.2448,-0.2406,-0.2372,-0.2338,-0.2299,-0.2261,-0.2241,-0.2222,-0.2203,-0.2162,-0.2153,-0.2161,-0.2112,-0.211,-0.2127,-0.2141,-0.2156,-0.2153,-0.2132,-0.2131,-0.2131,0,-0.2686,-0.2646,-0.2601,-0.2541,-0.2526,-0.2502,-0.2453,-0.2421,-0.2372,-0.2349,-0.2314,-0.2281,-0.2245,-0.2232,-0.2181,-0.2188,-0.2165,-0.2142,-0.214,-0.2134,-0.2122,-0.2136,-0.2151,-0.2151,-0.2129,-0.2129,-0.2129,0,-0.2719,-0.2652,-0.2617,-0.2594,-0.2524,-0.2508,-0.2477,-0.2428,-0.2402,-0.2359,-0.2341,-0.2294,-0.2269,-0.2233,-0.2188,-0.2183,-0.2142,-0.2125,-0.2121,-0.2122,-0.2114,-0.2115,-0.2127,-0.2099,-0.2099,-0.2099,-0.2099,0,-0.2723,-0.2697,-0.263,-0.2609,-0.2578,-0.253,-0.2501,-0.2467,-0.2423,-0.2394,-0.2353,-0.2326,-0.2268,-0.2233,-0.2197,-0.2161,-0.2149,-0.2129,-0.2119,-0.2132,-0.2135,-0.2117,-0.2116,-0.2099,-0.2099,-0.2099,-0.2099,0,-0.2754,-0.2708,-0.2667,-0.2604,-0.2587,-0.2568,-0.2513,-0.249,-0.2454,-0.2417,-0.2405,-0.2348,-0.2305,-0.2257,-0.2198,-0.2173,-0.214,-0.2126,-0.2157,-0.2151,-0.215,-0.2151,-0.215,-0.2148,-0.2122,-0.2122,-0.2122,0,-0.2759,-0.2739,-0.2674,-0.2652,-0.2623,-0.2588,-0.256,-0.2511,-0.2485,-0.2427,-0.2411,-0.2366,-0.2327,-0.226,-0.2213,-0.2167,-0.2152,-0.2155,-0.2145,-0.2159,-0.2153,-0.2155,-0.2153,-0.2159,-0.2159,-0.2159,-0.216,0,-0.2775,-0.2753,-0.2716,-0.2672,-0.2641,-0.2603,-0.2563,-0.2547,-0.2489,-0.2461,-0.2418,-0.2388,-0.2328,-0.2283,-0.2232,-0.2199,-0.217,-0.2163,-0.216,-0.2173,-0.2192,-0.2182,-0.2165,-0.2164,-0.2163,-0.2163,-0.2163,-0.2163,-0.2793,-0.2773,-0.2725,-0.2685,-0.265,-0.2614,-0.2589,-0.255,-0.2514,-0.2462,-0.2435,-0.2392,-0.2343,-0.2271,-0.224,-0.2205,-0.2195,-0.219,-0.2189,-0.2188,-0.2192,-0.2198,-0.2195,-0.2195,-0.2195,-0.2195,-0.2194,0,-0.2807,-0.2774,-0.2738,-0.2684,-0.2653,-0.2629,-0.2583,-0.2558,-0.2521,-0.2479,-0.2442,-0.2391,-0.2348,-0.2297,-0.225,-0.2232,-0.2217,-0.2221,-0.2222,-0.2215,-0.2203,-0.2211,-0.2234,-0.2234,-0.2234,-0.2234,-0.2234,-0.2234,-0.281,-0.2775,-0.2748,-0.2695,-0.2661,-0.262,-0.2596,-0.2562,-0.2528,-0.2475,-0.2439,-0.2406,-0.236,-0.231,-0.2268,-0.2254,-0.2239,-0.2247,-0.2229,-0.2219,-0.2216,-0.2213,-0.222,-0.2244,-0.2244,-0.2244,-0.2244,-0.2244]},{"header":{"parameterUnit":"m.s-1","parameterCategory":1,"la1":30.2991,"la2":30.254,"lo1":-89.0895,"lo2":-89.0444,"dy":0.0017,"dx":0.0017,"nx":28,"ny":28,"refTime":"2024-05-12T03:00:00:Z","depth":0,"parameterNumber":3,"parameterNumberName":"V-component_of_WINDS"},"data":[0,0,0,0,0,0,0,0,0,0,0,0,0,0,0,0,0,0,0,0,0,0,0,0,0,0,0,0,0,0,0,0,0,0,0,0,0,0,0,0,0,0,0,0,0,0,0,0,0,0,0,0,0,0,0,0,0,0,-0.2711,-0.2712,0,-0.2806,-0.2807,-0.2808,-0.2921,-0.2923,-0.2925,-0.2927,-0.302,-0.302,-0.3021,0,0,0,0,0,0,0,0,0,0,0,0,0,-0.2627,-0.2628,-0.2711,-0.2712,-0.2713,-0.2806,-0.2807,-0.2808,-0.2921,-0.2923,-0.2925,-0.2927,-0.3019,-0.302,-0.3021,0,0,0,0,0,0,0,0,0,0,0,0,0,-0.2687,-0.2628,-0.2711,-0.2781,-0.2788,-0.2805,-0.2807,-0.2808,-0.2921,-0.2923,-0.2926,-0.2928,-0.3019,-0.302,-0.3021,-0.2976,0,0,-0.3025,-0.3026,0,0,0,0,0,0,0,0,-0.2683,-0.2689,-0.277,-0.2776,-0.2784,-0.2855,-0.2812,-0.2865,-0.292,-0.287,-0.2927,-0.293,-0.2962,-0.2968,-0.298,-0.298,-0.2984,-0.3025,-0.3026,-0.3027,-0.3027,0,0,0,0,0,0,0,-0.2679,-0.2686,-0.2748,-0.2771,-0.278,-0.2807,-0.2819,-0.2822,-0.29,-0.2875,-0.2883,-0.2893,-0.2967,-0.2979,-0.2983,-0.2986,-0.3025,-0.3026,-0.3027,-0.3028,-0.2958,-0.2956,0,0,0,0,0,0,-0.2664,-0.2682,-0.2745,-0.2751,-0.2739,-0.2807,-0.2819,-0.2829,-0.29,-0.2914,-0.2891,-0.2898,-0.2975,-0.2982,-0.2987,-0.2942,-0.3027,-0.3028,-0.3029,-0.2961,-0.2958,-0.2955,0,0,0,0,0,0,-0.2662,-0.2669,-0.2742,-0.2719,-0.273,-0.2805,-0.2815,-0.283,-0.2842,-0.2913,-0.2927,-0.2889,-0.2978,-0.2985,-0.2979,-0.2947,-0.3028,-0.303,-0.2964,-0.296,-0.2956,-0.285,0,0,0,0,0,0,-0.2659,-0.2668,-0.2651,-0.2718,-0.2731,-0.2732,-0.2813,-0.283,-0.2844,-0.2855,-0.2914,-0.2927,-0.298,-0.2977,-0.298,-0.295,-0.3031,-0.2967,-0.2962,-0.2957,-0.2856,-0.2842,-0.2831,0,0,0,0,0,-0.2656,-0.2616,-0.265,-0.2657,-0.2712,-0.273,-0.2738,-0.2801,-0.2841,-0.2826,-0.2872,-0.2925,-0.2949,-0.2975,-0.298,-0.295,-0.2969,-0.2963,-0.2958,-0.2862,-0.2845,-0.2831,0,0,0,0,0,0,-0.2541,-0.2626,-0.2664,-0.2644,-0.268,-0.2749,-0.2732,-0.2781,-0.2804,-0.2813,-0.2889,-0.2902,-0.2888,-0.2918,-0.2945,-0.2912,-0.2967,-0.2962,-0.2893,-0.2877,-0.2865,-0.2859,-0.3032,0,0,0,0,0,-0.2514,-0.2522,-0.2595,-0.257,-0.2586,-0.2655,-0.2666,-0.2712,-0.2751,-0.2766,-0.2811,-0.2846,-0.2863,-0.2871,-0.2889,-0.2861,-0.2877,-0.2842,-0.2829,-0.2818,-0.2814,-0.2805,-0.2791,-0.2936,-0.2936,-0.2936,0,0,-0.2457,-0.2504,-0.2504,-0.2549,-0.2581,-0.2589,-0.2667,-0.267,-0.2677,-0.2766,-0.2765,-0.2799,-0.2843,-0.2827,-0.2822,-0.2851,-0.2778,-0.2811,-0.2802,-0.2803,-0.2797,-0.2784,-0.2771,-0.2932,-0.2932,-0.2933,0,0,-0.2358,-0.2393,-0.2379,-0.2411,-0.246,-0.2507,-0.2503,-0.2566,-0.2593,-0.2593,-0.2662,-0.267,-0.2694,-0.2725,-0.2743,-0.2658,-0.271,-0.2662,-0.2595,-0.2585,-0.2574,-0.2565,-0.2538,-0.2527,-0.2656,-0.2656,-0.2656,0,-0.2281,-0.2295,-0.2364,-0.2365,-0.2384,-0.2467,-0.2453,-0.248,-0.2532,-0.2543,-0.2576,-0.2612,-0.2647,-0.2641,-0.262,-0.2631,-0.2631,-0.2656,-0.257,-0.2561,-0.2553,-0.2529,-0.2518,-0.265,-0.2651,-0.2651,-0.2652,0,-0.22,-0.2209,-0.2191,-0.2242,-0.2258,-0.2251,-0.232,-0.2328,-0.2373,-0.2416,-0.2417,-0.2462,-0.2493,-0.2495,-0.2537,-0.2495,-0.2513,-0.2556,-0.2614,-0.2533,-0.2511,-0.2502,-0.2642,-0.2644,-0.2646,-0.2647,0,0,-0.2031,-0.2123,-0.2115,-0.2141,-0.2203,-0.2211,-0.2208,-0.224,-0.2247,-0.228,-0.2282,-0.2302,-0.2345,-0.2365,-0.2412,-0.2403,-0.2338,-0.2449,-0.2451,-0.2429,-0.2298,-0.2267,-0.2255,-0.2371,-0.2369,-0.2368,-0.2296,0,-0.1946,-0.1949,-0.2012,-0.1997,-0.2008,-0.2087,-0.2086,-0.2123,-0.2164,-0.2179,-0.2223,-0.2239,-0.2291,-0.2305,-0.2299,-0.2346,-0.2313,-0.2352,-0.2375,-0.2375,-0.2364,-0.2243,-0.2209,-0.2139,-0.2287,-0.2286,-0.2285,0,-0.1847,-0.1877,-0.1864,-0.1929,-0.1936,-0.1933,-0.197,-0.1983,-0.2027,-0.2058,-0.2083,-0.2137,-0.214,-0.2193,-0.22,-0.2225,-0.2238,-0.2262,-0.2261,-0.2268,-0.2326,-0.2249,-0.2117,-0.2108,-0.2271,-0.2272,-0.2273,0,-0.173,-0.1767,-0.1765,-0.1784,-0.1859,-0.1856,-0.1887,-0.1935,-0.1951,-0.1982,-0.1994,-0.2024,-0.2041,-0.2063,-0.2124,-0.2157,-0.2125,-0.2182,-0.2152,-0.215,-0.2143,-0.2143,-0.2015,-0.2146,-0.2146,-0.2146,-0.2146,0,-0.163,-0.1619,-0.1714,-0.1713,-0.1704,-0.1777,-0.1766,-0.1805,-0.1847,-0.1855,-0.1924,-0.193,-0.201,-0.2025,-0.2072,-0.2073,-0.2078,-0.2104,-0.2118,-0.21,-0.2097,-0.2111,-0.2119,-0.2144,-0.2144,-0.2145,-0.2145,0,-0.1498,-0.1561,-0.1565,-0.1636,-0.1654,-0.1645,-0.1707,-0.1709,-0.1754,-0.1764,-0.1771,-0.1842,-0.1864,-0.1927,-0.1964,-0.1996,-0.1984,-0.2006,-0.1969,-0.1978,-0.1946,-0.1949,-0.1824,-0.1813,-0.1947,-0.1946,-0.1945,0,-0.1432,-0.1426,-0.1498,-0.151,-0.1538,-0.1555,-0.1573,-0.1645,-0.166,-0.1713,-0.1709,-0.1737,-0.1764,-0.1795,-0.185,-0.188,-0.1906,-0.186,-0.1911,-0.1894,-0.191,-0.191,-0.1912,-0.1849,-0.1848,-0.1846,-0.1845,0,-0.1308,-0.1341,-0.1364,-0.14,-0.142,-0.145,-0.1485,-0.149,-0.157,-0.1585,-0.1609,-0.163,-0.167,-0.1697,-0.1736,-0.1768,-0.1821,-0.1828,-0.1824,-0.1807,-0.1787,-0.1801,-0.1943,-0.1831,-0.1833,-0.1834,-0.1834,-0.1835,-0.121,-0.121,-0.1262,-0.1287,-0.1321,-0.1353,-0.136,-0.1407,-0.1429,-0.1469,-0.1509,-0.153,-0.1577,-0.1635,-0.1664,-0.1682,-0.1709,-0.1701,-0.1699,-0.1697,-0.1691,-0.1782,-0.1688,-0.1689,-0.1689,-0.169,-0.169,0,-0.1094,-0.1131,-0.1154,-0.1202,-0.1222,-0.127,-0.1311,-0.1325,-0.1343,-0.1383,-0.1409,-0.1438,-0.1466,-0.1524,-0.1557,-0.1561,-0.1586,-0.1567,-0.1569,-0.1577,-0.1662,-0.1665,-0.1547,-0.1547,-0.1547,-0.1547,-0.1547,-0.1547,-0.1036,-0.104,-0.1078,-0.1101,-0.1138,-0.1161,-0.1181,-0.1211,-0.1244,-0.1275,-0.1299,-0.1337,-0.1385,-0.1423,-0.1451,-0.1468,-0.1478,-0.1452,-0.1476,-0.1556,-0.157,-0.1583,-0.1586,-0.1453,-0.1453,-0.139,-0.1389,-0.1389]}]]